Terminal Aerodrome Forecast
Issued by NWS

Home | Current Version | Previous Version | Graphics & Text | Print | Product List | Glossary On
Versions: 1 2 3 4 5 6 7 8 9 10 11 12 13 14 15
000
FTUS45 KGGW 020229 AAA
TAFSDY
TAF AMD
KSDY 020229Z 0202/0224 00000KT P6SM VCSH OVC015
     FM020600 00000KT 1/2SM FZFG OVC025
     FM021000 00000KT 3SM BR OVC015
     FM021800 24005KT P6SM BKN020=

USA.gov is the U.S. government's official web portal to all federal, state and local government web resources and services.